Location: Gez
(43.0167°N, 0.1000°W)
Time: 12:20:28
(UTC+00:00)

SL-24 R/B - Pass Details

Date: 21 January 2026
Orbit: 679 x 1188 km, 98.2° (Epoch: 10 February)

Event Time Altitude Azimuth Distance (km) Brightness Sun altitude
Rises 02:59:23 0° 21° (NNE) 4,093 9.1 -48.1°
Reaches altitude 10° 03:02:24 10° 31° (NNE) 3,122 8.5 -47.5°
Enters shadow 03:05:55 25° 54° (NE) 2,187 7.6 -46.9°
